THEMIS E

Last updated on Fri Feb 06 2026 00:02:42 GMT+0000 (Coordinated Universal Time)

1 30798U 07004E 26036.64728545 -.00000455 00000+0 00000+0 0 9999 2 30798 3.6818 101.3536 8375258 196.9957 150.1785 0.87838269 64769
UTC large
Height (km)
Speed (km/s)
/
Latitude / Longitude
Inclination (degrees)
Orbital Period (minutes)
Azimuth
Elevation
Range (km)
Doppler Factor

Next 0 passes for location: London (51.5072 / 0.1276)

Sorry there are no passes over London.